Regional Weather Roundup
Issued by NWS Goodland, KS

Home | Current Version | Previous Version | Graphics & Text | Print | Product List | Glossary On
Versions: 1 2 3 4 5 6 7 8 9 10 11 12 13 14 15 16 17 18 19 20 21 22 23 24 25 26 27 28 29 30 31 32 33 34 35 36 37 38 39 40 41 42 43 44 45 46 47 48 49 50
000
ASUS43 KGLD 171008
RWRGLD

GOODLAND FORECAST AREA HOURLY WEATHER ROUNDUP
NATIONAL WEATHER SERVICE GOODLAND KS
300 AM MST SUN DEC 17 2017

...OFFICIAL OBSERVATIONS...

CITY           SKY/WX    TMP DP  RH WIND       PRES   REMARKS
GOODLAND KS    CLOUDY    33  30  88 N13       29.94R
HILL CITY KS   CLOUDY    33  31  92 N15       29.93R
IMPERIAL NEB   CLOUDY    34  34 100 NE8       29.98S
MCCOOK NEB     CLOUDY    35  31  85 NE9       29.96S
AKRON CO       FRZ RAIN  30  28  92 N9        29.95S FOG
BURLINGTON CO  CLOUDY    31  29  92 NE13      29.93R
LIMON CO       CLOUDY    28  26  92 N8        29.92S
$$

...UNOFFICIAL OBSERVATIONS...

CITY           SKY/WX    TMP DP  RH WIND       PRES   REMARKS
COLBY KS       CLOUDY    34  32  93 N16       29.95R
LENORA KS        N/A     31  32 100 N7          N/A
NORTON KS      CLEAR     30  27  86 N12       29.93
SHARON SPRINGS   N/A     32  29  88 NE12G22     N/A
TRENTON NEB      N/A     35  32  89 N6          N/A
KIT CARSON CO    N/A     31  27  83 MISG        N/A
YUMA CO        CLOUDY    30  30 100 NE8       29.96S FOG
$$




USA.gov is the U.S. government's official web portal to all federal, state and local government web resources and services.